Glonass Operational
NORAD ID: 32394
Int'l Code: 2007-065B
Perigee: 19,126.3 km
Apogee: 19,147.6 km
Inclination: 65.3°
Period: 675.7 min
Semi major axis: 25,507.9 km
Launch date: December 25, 2007
Source: Commonwealth of Independent States (former USSR) (CIS)
SV:
Comments: Glonass is a radio satellite navigation system, the former Soviet and now Russian counterpart to the United States' GPS system and the European Union's embryonic Galileo positioning system. It is operated for the Russian government by the Russian Space Forces.
Two Line Element Set (TLE):
1 32394U 07065B 10243.88147216 -.00000014 +00000-0 +00000-0 0 05123
2 32394 065.2507 028.3926 0004189 102.9843 042.1250 02.13103194020816
More details about COSMOS 2435 (GLONASS)